Weather History for Oelwein, IA

Change the Weather History Date:

Tuesday, March 19, 2013

  Actual Average Record
Temperature  
Mean Temperature 20 °F -  
Max Temperature 28 °F 43 °F 75 °F (1976)
Min Temperature 12 °F 27 °F 1 °F (1965)
Degree Days  
Heating Degree Days 45    
Moisture  
Dew Point 11 °F    
Average Humidity 67    
Maximum Humidity 79    
Minimum Humidity 55    
Precipitation  
Precipitation 0.00 in - - ()
Sea Level Pressure  
Sea Level Pressure 30.04 in    
Wind  
Wind Speed 22 mph (WNW)    
Max Wind Speed 26 mph    
Max Gust Speed 34 mph    
Visibility 10 miles    
Events      
Averages and records for this station are not official NWS values.
T = Trace of Precipitation, MM = Missing Value Source: NWS Daily Summary

Daily Weather History Graph

Daily Weather History Graph

Search for Another Location

Airport:

Trip Planner

Search our weather history database for the weather conditions in past years. The results will help you decide how hot, cold, wet, or windy it might be!

Date:

Astronomy

Mar. 19, 2013 Rise Set
Actual Time 7:12 AM CDT 7:19 PM CDT
Civil Twilight 6:44 AM CDT 7:47 PM CDT
Nautical Twilight 6:11 AM CDT 8:20 PM CDT
Astronomical Twilight 5:37 AM CDT 8:54 PM CDT
Moon 11:55 AM CDT (3/19) 2:13 AM CDT (3/19)
Length of Visible Light 13h 03m
Length of Day
12h 06m
Waxing Crescent, 50% of the Moon is Illuminated
Mar 19
Waxing Crescent
Mar 19
First Quarter
Mar 27
Full
Apr 2
Last Quarter
Apr 10
New

Hourly Weather History & Observations

Time (CDT) Temp. Windchill Dew Point Humidity Pressure Visibility Wind Dir Wind Speed Gust Speed Precip Events Conditions
12:15 AM 17.6 °F -0.3 °F 10.4 °F 73% 29.86 in 10.0 mi West 24.2 mph 32.2 mph N/A   Scattered Clouds
12:35 AM 17.6 °F 0.5 °F 10.4 °F 73% 29.86 in 10.0 mi West 21.9 mph 32.2 mph N/A   Scattered Clouds
12:55 AM 17.6 °F -0.3 °F 10.4 °F 73% 29.85 in 10.0 mi WNW 24.2 mph 29.9 mph N/A   Scattered Clouds
1:15 AM 15.8 °F -1.9 °F 10.4 °F 79% 29.85 in 10.0 mi WNW 21.9 mph 25.3 mph N/A   Scattered Clouds
1:55 AM 15.8 °F -1.5 °F 8.6 °F 73% 29.86 in 10.0 mi WNW 20.7 mph 27.6 mph N/A   Scattered Clouds
2:55 AM 14.0 °F -3.9 °F 8.6 °F 79% 29.88 in 10.0 mi West 20.7 mph 32.2 mph N/A   Clear
3:15 AM 14.0 °F -3.0 °F 8.6 °F 79% 29.89 in 10.0 mi WNW 18.4 mph 28.8 mph N/A   Clear
3:35 AM 14.0 °F -3.9 °F 6.8 °F 73% 29.90 in 10.0 mi West 20.7 mph 28.8 mph N/A   Clear
3:55 AM 14.0 °F -4.3 °F 6.8 °F 73% 29.91 in 10.0 mi West 21.9 mph 28.8 mph N/A   Clear
4:15 AM 14.0 °F -4.3 °F 6.8 °F 73% 29.91 in 10.0 mi West 21.9 mph 28.8 mph N/A   Clear
4:35 AM 14.0 °F -5.1 °F 6.8 °F 73% 29.91 in 10.0 mi West 24.2 mph 29.9 mph N/A   Clear
4:55 AM 14.0 °F -5.5 °F 6.8 °F 73% 29.92 in 10.0 mi West 25.3 mph 33.4 mph N/A   Clear
5:15 AM 12.2 °F -7.5 °F 5.0 °F 73% 29.92 in 10.0 mi West 24.2 mph 34.5 mph N/A   Clear
5:35 AM 12.2 °F -6.7 °F 5.0 °F 73% 29.93 in 10.0 mi West 21.9 mph 33.4 mph N/A   Clear
5:55 AM 12.2 °F -5.8 °F 6.8 °F 79% 29.94 in 10.0 mi WNW 19.6 mph - N/A   Clear
6:15 AM 12.2 °F -6.7 °F 6.8 °F 79% 29.94 in 10.0 mi WNW 21.9 mph 25.3 mph N/A   Clear
6:35 AM 12.2 °F -6.3 °F 5.0 °F 73% 29.95 in 10.0 mi WNW 20.7 mph - N/A   Clear
6:55 AM 12.2 °F -6.3 °F 5.0 °F 73% 29.96 in 10.0 mi WNW 20.7 mph 26.5 mph N/A   Clear
7:15 AM 12.2 °F -6.7 °F 5.0 °F 73% 29.96 in 10.0 mi WNW 21.9 mph 25.3 mph N/A   Clear
7:35 AM 12.2 °F -6.7 °F 5.0 °F 73% 29.97 in 10.0 mi WNW 21.9 mph 31.1 mph N/A   Clear
7:55 AM 12.2 °F -7.1 °F 5.0 °F 73% 29.99 in 10.0 mi West 23.0 mph 27.6 mph N/A   Clear
8:15 AM 14.0 °F -4.7 °F 5.0 °F 67% 29.99 in 10.0 mi WNW 23.0 mph 27.6 mph N/A   Clear
8:35 AM 14.0 °F -4.7 °F 5.0 °F 67% 30.00 in 10.0 mi WNW 23.0 mph 28.8 mph N/A   Clear
8:55 AM 14.0 °F -5.1 °F 6.8 °F 73% 30.01 in 10.0 mi WNW 24.2 mph 28.8 mph N/A   Clear
9:15 AM 14.0 °F -4.7 °F 6.8 °F 73% 30.02 in 10.0 mi WNW 23.0 mph - N/A   Clear
9:35 AM 15.8 °F -2.7 °F 6.8 °F 68% 30.04 in 10.0 mi WNW 24.2 mph 29.9 mph N/A   Clear
9:55 AM 17.6 °F -0.3 °F 6.8 °F 63% 30.06 in 10.0 mi WNW 24.2 mph 29.9 mph N/A   Clear
10:15 AM 17.6 °F -0.3 °F 8.6 °F 68% 30.05 in 10.0 mi WNW 24.2 mph 28.8 mph N/A   Clear
10:35 AM 17.6 °F 0.9 °F 8.6 °F 68% 30.06 in 10.0 mi WNW 20.7 mph 27.6 mph N/A   Clear
10:55 AM 19.4 °F 4.1 °F 8.6 °F 63% 30.06 in 10.0 mi WNW 18.4 mph 25.3 mph N/A   Clear
11:15 AM 19.4 °F 3.2 °F 10.4 °F 68% 30.07 in 10.0 mi WNW 20.7 mph - N/A   Clear
11:35 AM 21.2 °F 5.6 °F 10.4 °F 63% 30.08 in 10.0 mi WNW 20.7 mph 26.5 mph N/A   Clear
11:55 AM 21.2 °F 4.5 °F 10.4 °F 63% 30.09 in 10.0 mi WNW 24.2 mph 28.8 mph N/A   Clear
12:15 PM 21.2 °F 4.5 °F 10.4 °F 63% 30.09 in 10.0 mi WNW 24.2 mph - N/A   Clear
12:35 PM 23.0 °F 8.0 °F 12.2 °F 63% 30.08 in 10.0 mi WNW 20.7 mph - N/A   Clear
12:55 PM 23.0 °F 7.2 °F 12.2 °F 63% 30.08 in 10.0 mi WNW 23.0 mph - N/A   Clear
1:15 PM 23.0 °F 8.0 °F 12.2 °F 63% 30.08 in 10.0 mi WNW 20.7 mph - N/A   Clear
1:35 PM 24.8 °F 12.4 °F 12.2 °F 59% 30.08 in 10.0 mi WNW 15.0 mph - N/A   Clear
1:55 PM 24.8 °F 12.4 °F 12.2 °F 59% 30.08 in 10.0 mi West 15.0 mph - N/A   Clear
2:15 PM 26.6 °F 13.8 °F 14.0 °F 59% 30.09 in 10.0 mi West 17.3 mph 20.7 mph N/A   Clear
2:35 PM 26.6 °F 12.4 °F 14.0 °F 59% 30.10 in 10.0 mi West 21.9 mph - N/A   Clear
2:55 PM 26.6 °F 13.1 °F 14.0 °F 59% 30.10 in 10.0 mi West 19.6 mph 23.0 mph N/A   Clear
3:15 PM 26.6 °F 13.4 °F 14.0 °F 59% 30.10 in 10.0 mi West 18.4 mph 24.2 mph N/A   Clear
3:35 PM 28.4 °F 15.1 °F 14.0 °F 55% 30.10 in 10.0 mi West 20.7 mph 24.2 mph N/A   Clear
3:55 PM 28.4 °F 15.4 °F 14.0 °F 55% 30.10 in 10.0 mi West 19.6 mph 24.2 mph N/A   Clear
4:15 PM 28.4 °F 15.1 °F 14.0 °F 55% 30.10 in 10.0 mi West 20.7 mph - N/A   Clear
4:35 PM 28.4 °F 15.1 °F 14.0 °F 55% 30.11 in 10.0 mi West 20.7 mph 24.2 mph N/A   Clear
4:55 PM 28.4 °F 15.8 °F 14.0 °F 55% 30.11 in 10.0 mi West 18.4 mph - N/A   Clear
5:15 PM 28.4 °F 15.4 °F 15.8 °F 59% 30.12 in 10.0 mi West 19.6 mph 23.0 mph N/A   Clear
5:35 PM 28.4 °F 15.1 °F 15.8 °F 59% 30.12 in 10.0 mi West 20.7 mph - N/A   Clear
5:55 PM 28.4 °F 16.2 °F 17.6 °F 64% 30.12 in 10.0 mi WNW 17.3 mph 23.0 mph N/A   Clear
6:15 PM 28.4 °F 14.7 °F 17.6 °F 64% 30.12 in 10.0 mi West 21.9 mph 26.5 mph N/A   Clear
6:35 PM 28.4 °F 15.1 °F 17.6 °F 64% 30.13 in 10.0 mi WNW 20.7 mph - N/A   Clear
6:55 PM 26.6 °F 12.4 °F 17.6 °F 69% 30.13 in 10.0 mi WNW 21.9 mph 26.5 mph N/A   Clear
7:15 PM 26.6 °F 13.4 °F 15.8 °F 64% 30.14 in 10.0 mi WNW 18.4 mph 25.3 mph N/A   Clear
7:35 PM 26.6 °F 14.3 °F 15.8 °F 64% 30.14 in 10.0 mi WNW 16.1 mph - N/A   Clear
7:55 PM 24.8 °F 11.9 °F 14.0 °F 64% 30.15 in 10.0 mi WNW 16.1 mph - N/A   Scattered Clouds
8:15 PM 24.8 °F 12.4 °F 15.8 °F 69% 30.15 in 10.0 mi WNW 15.0 mph - N/A   Mostly Cloudy
8:35 PM 24.8 °F 11.9 °F 15.8 °F 69% 30.16 in 10.0 mi NW 16.1 mph - N/A   Overcast
8:55 PM 24.8 °F 11.9 °F 14.0 °F 64% 30.16 in 10.0 mi WNW 16.1 mph 20.7 mph N/A   Overcast
9:15 PM 23.0 °F 8.7 °F 12.2 °F 63% 30.16 in 10.0 mi WNW 18.4 mph 24.2 mph N/A   Mostly Cloudy
9:35 PM 23.0 °F 9.2 °F 12.2 °F 63% 30.16 in 10.0 mi WNW 17.3 mph 21.9 mph N/A   Scattered Clouds
9:55 PM 21.2 °F 4.9 °F 12.2 °F 68% 30.16 in 10.0 mi NW 23.0 mph 28.8 mph N/A   Scattered Clouds
10:15 PM 21.2 °F 4.9 °F 12.2 °F 68% 30.16 in 10.0 mi WNW 23.0 mph 26.5 mph N/A   Mostly Cloudy
10:35 PM 21.2 °F 6.4 °F 12.2 °F 68% 30.16 in 10.0 mi NW 18.4 mph 25.3 mph N/A   Mostly Cloudy
10:55 PM 19.4 °F 1.4 °F 10.4 °F 68% 30.16 in 10.0 mi WNW 26.5 mph 31.1 mph N/A   Scattered Clouds
11:15 PM 19.4 °F 1.8 °F 8.6 °F 63% 30.16 in 10.0 mi WNW 25.3 mph 32.2 mph N/A   Clear
11:55 PM 17.6 °F 0.9 °F 6.8 °F 63% 30.16 in 10.0 mi NW 20.7 mph 32.2 mph N/A   Clear